Location: Hiram
(41.3130°N, 81.1440°W)
Time: 21:38:57
(UTC-04:00)

Amateur Radio Satellites - All Passes

Search period start: 17 September 2014 21:08
Search period end: 18 September 2014 21:08
Location: Hiram, 41.3130°N, 81.1440°W

Satellite Date Start Highest point End Downlink Frequencies (MHz)
Time Altitude Azimuth
STRAND 1 17 Sep 21:26:56 21:31:05 26° 295° (WNW) 21:35:15 ?
Sapphire 17 Sep 21:27:18 21:31:43 24° 47° (NE) 21:36:06 437.095 MHz 1200 baud AX-25 AFSK
HO-68 17 Sep 21:40:17 21:47:26 82° 254° (WSW) 21:54:37 435.675 MHz FM
PCSat 17 Sep 21:54:13 21:59:19 40° 53° (NE) 22:04:24 145.825 MHz
KITSAT 1 17 Sep 21:58:14 22:05:49 43° 312° (NW) 22:13:26 435.175 FM
AO-40 17 Sep 21:59:28 03:17:19 39° 152° (SSE) 04:54:31 Beacon 2401.320
FUNcube-1 17 Sep 22:04:27 22:07:57 24° 67° (ENE) 22:11:30 145.950 - 145.970 MHz USB
Oscar 11 17 Sep 22:19:26 22:23:48 84° 76° (ENE) 22:28:12 145.825 FM, Beacon 2401.500 USB
UKube-1 17 Sep 22:34:19 22:38:27 44° 260° (W) 22:42:37 145.840 MHz, 145.915 MHz
SO-50 17 Sep 22:48:43 22:52:19 25° 112° (ESE) 22:56:00 436.795 FM
Sapphire 17 Sep 23:10:10 23:15:28 55° 246° (WSW) 23:20:44 437.095 MHz 1200 baud AX-25 AFSK
HO-68 17 Sep 23:32:51 23:36:07 14° 272° (W) 23:39:25 435.675 MHz FM
PCSat 17 Sep 23:37:55 23:42:34 30° 251° (WSW) 23:47:12 145.825 MHz
FUNcube-1 17 Sep 23:40:14 23:44:09 32° 264° (W) 23:48:12 145.950 - 145.970 MHz USB
KITSAT 1 17 Sep 23:59:34 00:03:46 15° 338° (NNW) 00:07:59 435.175 FM
SO-50 18 Sep 00:28:29 00:32:40 38° 310° (NW) 00:36:59 436.795 FM
UOSAT-12 18 Sep 00:37:36 00:41:25 26° 113° (ESE) 00:45:19 437.025 FM, 437.400 FM
Oscar 16 18 Sep 01:33:45 01:34:31 10° 88° (E) 01:35:17 437.025 USB, Beacon 2401.1428
KITSAT 1 18 Sep 02:01:04 02:03:33 11° 10° (N) 02:06:02 435.175 FM
Saudisat 1A 18 Sep 02:10:27 02:14:03 24° 45° (NE) 02:17:38 436.775 MHz
Uribyol 2 18 Sep 02:16:37 02:18:40 12° 89° (E) 02:20:43 436.500 FM
UOSAT-12 18 Sep 02:17:05 02:21:24 38° 310° (NW) 02:25:49 437.025 FM, 437.400 FM
Oscar 19 18 Sep 02:31:05 02:35:55 39° 98° (E) 02:40:41 437.125 CW, 437.150 USB
AO-27 18 Sep 02:44:43 02:48:47 23° 94° (E) 02:52:49 436.795 MHz FM
JAS-1B 18 Sep 03:04:55 03:10:16 38° 97° (E) 03:15:32 435.800 - 435.900 CW/SSB
Oscar 16 18 Sep 03:09:20 03:14:33 89° 284° (WNW) 03:19:42 437.025 USB, Beacon 2401.1428
ISS 18 Sep 03:15:40 03:18:14 21° 133° (SE) 03:20:49 145.800 FM
Gurwin Techsat 1B 18 Sep 03:26:23 03:30:51 27° 95° (E) 03:35:16 435.225 FM
AO-Echo 18 Sep 03:37:28 03:42:19 84° 103° (ESE) 03:47:16 ?
ITAMSAT 1 18 Sep 03:48:46 03:54:00 88° 104° (ESE) 03:59:14 435.822 SSB
Saudisat 1A 18 Sep 03:49:37 03:53:48 42° 243° (WSW) 03:57:56 436.775 MHz
Uribyol 2 18 Sep 03:53:29 03:58:43 79° 286° (WNW) 04:03:56 436.500 FM
KITSAT 1 18 Sep 03:55:43 04:02:24 27° 39° (NE) 04:09:02 435.175 FM
TMSAT-1 18 Sep 04:04:14 04:09:18 44° 99° (E) 04:14:20 436.925 FM
Oscar 19 18 Sep 04:10:49 04:15:03 26° 295° (WNW) 04:19:16 437.125 CW, 437.150 USB
AO-27 18 Sep 04:23:32 04:28:28 44° 290° (WNW) 04:33:23 436.795 MHz FM
RS-15 18 Sep 04:25:24 04:35:22 41° 108° (ESE) 04:45:09 29.354 - 29.394 USB, Beacon 29.352 USB
Oscar 10/S400 18 Sep 04:27:39 05:28:09 20° 249° (WSW) 07:37:15 145.825 - 145.975 CW/USB, Beacon 145.810 USB
AO-7 18 Sep 04:38:30 04:45:04 25° 94° (E) 04:51:35 29.400 - 29.500 MHz
OPAL 18 Sep 04:46:19 04:51:19 52° 69° (ENE) 04:56:23 ?
Uosat F 18 Sep 04:47:01 04:50:29 19° 93° (E) 04:53:56 435.120 FM
PANSAT 18 Sep 04:48:44 04:50:15 12° 180° (S) 04:51:46 not established
Oscar 16 18 Sep 04:51:12 04:53:06 12° 302° (WNW) 04:54:59 437.025 USB, Beacon 2401.1428
ISS 18 Sep 04:51:32 04:54:45 46° 330° (NNW) 04:57:59 145.800 FM
JAS-1B 18 Sep 04:56:00 05:00:50 28° 297° (WNW) 05:05:32 435.800 - 435.900 CW/SSB
Gurwin Techsat 1B 18 Sep 05:05:59 05:10:53 39° 291° (WNW) 05:15:46 435.225 FM
AO-Echo 18 Sep 05:18:46 05:20:26 12° 300° (WNW) 05:22:06 ?
ITAMSAT 1 18 Sep 05:30:33 05:32:44 13° 301° (WNW) 05:34:55 435.822 SSB
Uribyol 2 18 Sep 05:36:05 05:37:19 11° 303° (WNW) 05:38:32 436.500 FM
TMSAT-1 18 Sep 05:44:45 05:48:57 25° 295° (WNW) 05:53:09 436.925 FM
JAS-2 18 Sep 05:50:33 05:53:47 15° 91° (E) 05:57:11 435.800 - 435.900 CW/SSB, 435.910 FM
KITSAT 1 18 Sep 05:50:39 05:58:46 84° 241° (WSW) 06:06:49 435.175 FM
Uosat F 18 Sep 06:24:41 06:29:32 51° 289° (WNW) 06:34:23 435.120 FM
OPAL 18 Sep 06:26:47 06:30:29 20° 265° (W) 06:34:13 ?
ISS 18 Sep 06:29:55 06:32:06 16° 349° (N) 06:34:16 145.800 FM
AO-7 18 Sep 06:30:14 06:38:27 70° 292° (WNW) 06:46:39 29.400 - 29.500 MHz
RS-15 18 Sep 06:36:24 06:47:14 60° 310° (NW) 06:58:03 29.354 - 29.394 USB, Beacon 29.352 USB
STRAND 1 18 Sep 07:03:14 07:08:12 58° 72° (ENE) 07:13:12 ?
Hamsat 18 Sep 07:04:01 07:08:11 51° 99° (E) 07:12:17 145.90 MHz
SO-50 18 Sep 07:19:30 07:23:36 27° 46° (NE) 07:27:45 436.795 FM
JAS-2 18 Sep 07:33:22 07:39:19 85° 285° (WNW) 07:46:03 435.800 - 435.900 CW/SSB, 435.910 FM
KITSAT 1 18 Sep 07:48:24 07:52:56 16° 260° (W) 07:57:27 435.175 FM
ISS 18 Sep 08:07:43 08:09:49 16° 10° (N) 08:11:55 145.800 FM
SO-67 18 Sep 08:09:54 08:13:08 36° 98° (E) 08:16:20 435.3500 MHz FM
AO-7 18 Sep 08:25:07 08:29:47 17° 313° (NW) 08:34:27 29.400 - 29.500 MHz
Hamsat 18 Sep 08:41:22 08:43:42 15° 296° (WNW) 08:46:00 145.90 MHz
STRAND 1 18 Sep 08:44:35 08:47:46 17° 268° (W) 08:50:57 ?
RS-15 18 Sep 08:54:12 09:02:33 24° 341° (NNW) 09:11:00 29.354 - 29.394 USB, Beacon 29.352 USB
SO-50 18 Sep 08:59:46 09:04:19 42° 244° (WSW) 09:08:53 436.795 FM
UOSAT-12 18 Sep 09:06:41 09:10:42 27° 46° (NE) 09:14:39 437.025 FM, 437.400 FM
HO-68 18 Sep 09:09:29 09:14:15 19° 91° (E) 09:18:59 435.675 MHz FM
MaSat-1 18 Sep 09:10:20 09:15:12 53° 111° (ESE) 09:20:03 437.345 MHz
JAS-2 18 Sep 09:20:52 09:23:43 14° 300° (WNW) 09:26:43 435.800 - 435.900 CW/SSB, 435.910 FM
ISS 18 Sep 09:44:01 09:47:12 41° 29° (NNE) 09:50:23 145.800 FM
SO-67 18 Sep 09:44:15 09:45:49 13° 294° (WNW) 09:47:22 435.3500 MHz FM
Oscar 11 18 Sep 10:08:28 10:11:03 15° 92° (E) 10:13:36 145.825 FM, Beacon 2401.500 USB
UKube-1 18 Sep 10:22:37 10:26:26 29° 97° (E) 10:30:14 145.840 MHz, 145.915 MHz
UOSAT-12 18 Sep 10:46:33 10:50:59 42° 244° (WSW) 10:55:21 437.025 FM, 437.400 FM
MaSat-1 18 Sep 10:48:22 10:52:17 22° 308° (NW) 10:56:08 437.345 MHz
HO-68 18 Sep 10:55:28 11:02:40 80° 288° (WNW) 11:09:50 435.675 MHz FM
RS-15 18 Sep 11:12:02 11:20:17 23° 17° (NNE) 11:28:40 29.354 - 29.394 USB, Beacon 29.352 USB
ISS 18 Sep 11:21:02 11:23:47 24° 226° (SW) 11:26:31 145.800 FM
FUNcube-1 18 Sep 11:28:46 11:33:17 49° 99° (E) 11:37:42 145.950 - 145.970 MHz USB
Oscar 11 18 Sep 11:43:18 11:47:29 47° 288° (WNW) 11:51:37 145.825 FM, Beacon 2401.500 USB
UKube-1 18 Sep 11:58:56 12:02:31 25° 293° (WNW) 12:06:05 145.840 MHz, 145.915 MHz
Sapphire 18 Sep 12:10:28 12:14:09 19° 105° (ESE) 12:17:51 437.095 MHz 1200 baud AX-25 AFSK
PCSat 18 Sep 12:36:14 12:41:05 35° 110° (ESE) 12:45:58 145.825 MHz
HO-68 18 Sep 12:45:10 12:49:16 16° 307° (NW) 12:53:21 435.675 MHz FM
Oscar 16 18 Sep 12:49:18 12:52:39 18° 62° (ENE) 12:56:01 437.025 USB, Beacon 2401.1428
FUNcube-1 18 Sep 13:06:10 13:09:16 18° 296° (WNW) 13:12:20 145.950 - 145.970 MHz USB
AO-Echo 18 Sep 13:15:21 13:17:17 12° 61° (ENE) 13:19:13 ?
RS-15 18 Sep 13:25:05 13:35:55 55° 48° (NE) 13:47:07 29.354 - 29.394 USB, Beacon 29.352 USB
ITAMSAT 1 18 Sep 13:29:47 13:33:06 18° 62° (ENE) 13:36:27 435.822 SSB
Uribyol 2 18 Sep 13:33:54 13:37:36 20° 63° (ENE) 13:41:19 436.500 FM
Oscar 19 18 Sep 13:47:50 13:52:54 57° 72° (ENE) 13:58:00 437.125 CW, 437.150 USB
JAS-1B 18 Sep 13:48:10 13:56:06 43° 68° (ENE) 14:02:50 435.800 - 435.900 CW/SSB
Sapphire 18 Sep 13:51:44 13:57:04 60° 303° (WNW) 14:02:26 437.095 MHz 1200 baud AX-25 AFSK
AO-27 18 Sep 14:02:48 14:07:27 35° 68° (ENE) 14:12:06 436.795 MHz FM
PCSat 18 Sep 14:19:32 14:24:28 35° 308° (NW) 14:29:25 145.825 MHz
Oscar 16 18 Sep 14:26:22 14:31:29 62° 259° (WSW) 14:36:40 437.025 USB, Beacon 2401.1428
Oscar 10/S400 18 Sep 14:46:48 15:00:58 19° 147° (SSE) 15:13:29 145.825 - 145.975 CW/USB, Beacon 145.810 USB
Gurwin Techsat 1B 18 Sep 14:47:24 14:52:21 42° 70° (ENE) 14:57:20 435.225 FM
AO-Echo 18 Sep 14:50:42 14:55:28 75° 257° (WSW) 15:00:11 ?
ITAMSAT 1 18 Sep 15:07:00 15:12:05 62° 259° (WSW) 15:17:14 435.822 SSB
Uribyol 2 18 Sep 15:11:39 15:16:40 52° 260° (W) 15:21:45 436.500 FM
TMSAT-1 18 Sep 15:24:59 15:30:13 68° 74° (ENE) 15:35:29 436.925 FM
Oscar 19 18 Sep 15:29:11 15:32:35 18° 268° (W) 15:36:01 437.125 CW, 437.150 USB
AO-7 18 Sep 15:37:28 15:44:50 37° 59° (ENE) 15:52:11 29.400 - 29.500 MHz
RS-15 18 Sep 15:37:46 15:48:09 47° 250° (WSW) 15:58:58 29.354 - 29.394 USB, Beacon 29.352 USB
JAS-1B 18 Sep 15:38:23 15:46:36 42° 261° (W) 15:53:38 435.800 - 435.900 CW/SSB
Sapphire 18 Sep 15:39:36 15:41:39 12° 324° (NW) 15:43:43 437.095 MHz 1200 baud AX-25 AFSK
AO-27 18 Sep 15:42:33 15:46:58 29° 264° (W) 15:51:26 436.795 MHz FM
Uosat F 18 Sep 16:00:14 16:04:21 27° 66° (ENE) 16:08:29 435.120 FM
Gurwin Techsat 1B 18 Sep 16:28:12 16:32:28 24° 266° (W) 16:36:45 435.225 FM
OPAL 18 Sep 16:58:19 17:00:38 13° 92° (E) 17:02:55 ?
TMSAT-1 18 Sep 17:07:45 17:10:38 15° 270° (W) 17:13:31 436.925 FM
AO-7 18 Sep 17:29:17 17:37:19 53° 258° (WSW) 17:45:24 29.400 - 29.500 MHz
MaSat-1 18 Sep 17:29:31 17:30:20 11° 43° (NE) 17:31:08 437.345 MHz
Uosat F 18 Sep 17:38:24 17:42:58 36° 262° (W) 17:47:34 435.120 FM
JAS-2 18 Sep 17:47:02 17:51:51 37° 69° (ENE) 17:56:35 435.800 - 435.900 CW/SSB, 435.910 FM
Saudisat 1A 18 Sep 17:55:44 17:59:57 48° 118° (ESE) 18:04:12 436.775 MHz
Hamsat 18 Sep 17:57:13 18:01:14 37° 71° (ENE) 18:05:15 145.90 MHz
KITSAT 1 18 Sep 18:29:23 18:32:19 12° 98° (E) 18:35:15 435.175 FM
OPAL 18 Sep 18:34:52 18:40:04 75° 288° (WNW) 18:45:09 ?
SO-67 18 Sep 18:44:15 18:46:01 14° 67° (ENE) 18:47:47 435.3500 MHz FM
MaSat-1 18 Sep 19:03:58 19:07:50 73° 247° (WSW) 19:11:06 437.345 MHz
STRAND 1 18 Sep 19:14:43 19:18:22 19° 93° (E) 19:22:01 ?
JAS-2 18 Sep 19:32:50 19:37:07 25° 265° (W) 19:41:19 435.800 - 435.900 CW/SSB, 435.910 FM
Hamsat 18 Sep 19:34:09 19:37:18 19° 267° (W) 19:40:27 145.90 MHz
Saudisat 1A 18 Sep 19:36:21 19:39:46 22° 316° (NW) 19:43:12 436.775 MHz
HO-68 18 Sep 19:40:00 19:43:58 16° 52° (NE) 19:47:56 435.675 MHz FM
SO-67 18 Sep 20:15:34 20:18:44 34° 263° (W) 20:21:56 435.3500 MHz FM
OPAL 18 Sep 20:17:02 20:18:01 11° 306° (NW) 20:18:59 ?
KITSAT 1 18 Sep 20:18:14 20:26:15 71° 116° (ESE) 20:34:17 435.175 FM
STRAND 1 18 Sep 20:52:52 20:57:49 50° 289° (WNW) 21:02:46 ?
Sapphire 18 Sep 20:57:12 21:01:03 19° 44° (NE) 21:04:53 437.095 MHz 1200 baud AX-25 AFSK
Oscar 11 18 Sep 21:04:28 21:06:34 13° 63° (ENE) 21:08:41 145.825 FM, Beacon 2401.500 USB
